Terminal Aerodrome Forecast
Issued by NWS Boston, MA

Home | Current Version | Previous Version | Text Only | Print | Product List | Glossary On
Versions: 1 2 3 4 5 6 7 8 9 10 11 12 13 14 15 16 17 18 19 20 21 22 23 24 25
000
FTUS41 KBOX 242327
TAFBOS
TAF
KBOS 242327Z 2500/2606 20007KT P6SM FEW250
     FM251400 22010G17KT P6SM FEW250
     FM260500 22011G18KT P6SM VCSH BKN090=

USA.gov is the U.S. government's official web portal to all federal, state and local government web resources and services.